Year,Month,Day,Hour,Minute,Value (Times are PST for temperature in C)
2016,07,17,00,00,14.10
2016,07,17,00,01,14.10
2016,07,17,00,02,14.10
2016,07,17,00,03,14.10
2016,07,17,00,04,14.10
2016,07,17,00,05,14.10
2016,07,17,00,06,14.10
2016,07,17,00,07,14.10
2016,07,17,00,08,14.10
2016,07,17,00,09,14.00
2016,07,17,00,10,14.00
2016,07,17,00,11,14.00
2016,07,17,00,12,14.00
2016,07,17,00,17,13.90
2016,07,17,00,18,13.90
2016,07,17,00,19,13.90
2016,07,17,00,20,13.90
2016,07,17,00,21,13.90
2016,07,17,00,22,13.90
2016,07,17,00,23,13.90
2016,07,17,00,24,13.90
2016,07,17,00,25,13.80
2016,07,17,00,26,13.80
2016,07,17,00,27,13.80
2016,07,17,00,28,13.80
2016,07,17,00,29,13.80
2016,07,17,00,30,13.80
2016,07,17,00,31,13.70
2016,07,17,00,32,13.70
2016,07,17,00,33,13.70
2016,07,17,00,34,13.70
2016,07,17,00,35,13.70
2016,07,17,00,36,13.70
2016,07,17,00,37,13.70
2016,07,17,00,38,13.70
2016,07,17,00,39,13.70
2016,07,17,00,40,13.70
2016,07,17,00,41,13.70
2016,07,17,00,42,13.70
2016,07,17,00,43,13.70
2016,07,17,00,44,13.70
2016,07,17,00,45,13.70
2016,07,17,00,46,13.70
2016,07,17,00,47,13.70
2016,07,17,00,48,13.70
2016,07,17,00,49,13.70
2016,07,17,00,50,13.70
2016,07,17,00,51,13.70
2016,07,17,00,52,13.70
2016,07,17,00,53,13.70
2016,07,17,00,54,13.70
2016,07,17,00,55,13.70
2016,07,17,00,56,13.70
2016,07,17,00,57,13.70
2016,07,17,00,58,13.70
2016,07,17,00,59,13.70
2016,07,17,01,00,13.70
2016,07,17,01,01,13.70
2016,07,17,01,02,13.70
2016,07,17,01,03,13.70
2016,07,17,01,04,13.70
2016,07,17,01,05,13.70
2016,07,17,01,06,13.70
2016,07,17,01,07,13.70
2016,07,17,01,08,13.70
2016,07,17,01,09,13.70
2016,07,17,01,10,13.70
2016,07,17,01,11,13.70
2016,07,17,01,12,13.70
2016,07,17,01,13,13.70
2016,07,17,01,14,13.70
2016,07,17,01,15,13.70
2016,07,17,01,16,13.70
2016,07,17,01,17,13.70
2016,07,17,01,18,13.70
2016,07,17,01,19,13.70
2016,07,17,01,20,13.70
2016,07,17,01,21,13.70
2016,07,17,01,22,13.70
2016,07,17,01,23,13.70
2016,07,17,01,24,13.70
2016,07,17,01,25,13.70
2016,07,17,01,26,13.70
2016,07,17,01,27,13.70
2016,07,17,01,28,13.80
2016,07,17,01,29,13.80
2016,07,17,01,30,13.80
2016,07,17,01,31,13.80
2016,07,17,01,32,13.80
2016,07,17,01,33,13.80
2016,07,17,01,34,13.80
2016,07,17,01,35,13.80
2016,07,17,01,36,13.80
2016,07,17,01,37,13.80
2016,07,17,01,38,13.80
2016,07,17,01,39,13.80
2016,07,17,01,40,13.80
2016,07,17,01,41,13.80
2016,07,17,01,42,13.80
2016,07,17,01,43,13.80
2016,07,17,01,44,13.80
2016,07,17,01,45,13.80
2016,07,17,01,46,13.80
2016,07,17,01,47,13.80
2016,07,17,01,48,13.80
2016,07,17,01,49,13.80
2016,07,17,01,50,13.80
2016,07,17,01,51,13.80
2016,07,17,01,52,13.80
2016,07,17,01,53,13.80
2016,07,17,01,54,13.80
2016,07,17,01,55,13.80
2016,07,17,01,56,13.80
2016,07,17,01,57,13.80
2016,07,17,01,58,13.80
2016,07,17,01,59,13.80
2016,07,17,02,00,13.80
2016,07,17,02,01,13.80
2016,07,17,02,02,13.80
2016,07,17,02,03,13.80
2016,07,17,02,04,13.80
2016,07,17,02,05,13.80
2016,07,17,02,06,13.80
2016,07,17,02,07,13.80
2016,07,17,02,08,13.80
2016,07,17,02,09,13.80
2016,07,17,02,10,13.80
2016,07,17,02,11,13.80
2016,07,17,02,12,13.80
2016,07,17,02,13,13.80
2016,07,17,02,14,13.80
2016,07,17,02,15,13.80
2016,07,17,02,16,13.80
2016,07,17,02,17,13.80
2016,07,17,02,18,13.80
2016,07,17,02,19,13.80
2016,07,17,02,20,13.80
2016,07,17,02,21,13.80
2016,07,17,02,22,13.80
2016,07,17,02,23,13.80
2016,07,17,02,24,13.80
2016,07,17,02,25,13.80
2016,07,17,02,26,13.80
2016,07,17,02,27,13.80
2016,07,17,02,28,13.80
2016,07,17,02,29,13.80
2016,07,17,02,30,13.80
2016,07,17,02,31,13.80
2016,07,17,02,32,13.80
2016,07,17,02,33,13.80
2016,07,17,02,34,13.80
2016,07,17,02,35,13.80
2016,07,17,02,36,13.80
2016,07,17,02,37,13.80
2016,07,17,02,38,13.80
2016,07,17,02,39,13.80
2016,07,17,02,40,13.80
2016,07,17,02,41,13.80
2016,07,17,02,42,13.80
2016,07,17,02,43,13.80
2016,07,17,02,44,13.80
2016,07,17,02,45,13.80
2016,07,17,02,46,13.80
2016,07,17,02,47,13.80
2016,07,17,02,48,13.80
2016,07,17,02,49,13.80
2016,07,17,02,50,13.80
2016,07,17,02,51,13.80
2016,07,17,02,52,13.80
2016,07,17,02,53,13.80
2016,07,17,02,54,13.80
2016,07,17,02,55,13.80
2016,07,17,02,56,13.80
2016,07,17,02,57,13.80
2016,07,17,02,58,13.80
2016,07,17,02,59,13.80
2016,07,17,03,00,13.80
2016,07,17,03,01,13.80
2016,07,17,03,02,13.80
2016,07,17,03,03,13.80
2016,07,17,03,04,13.80
2016,07,17,03,05,13.80
2016,07,17,03,06,13.80
2016,07,17,03,07,13.80
2016,07,17,03,08,13.80
2016,07,17,03,09,13.80
2016,07,17,03,10,13.80
2016,07,17,03,11,13.80
2016,07,17,03,12,13.80
2016,07,17,03,13,13.80
2016,07,17,03,14,13.80
2016,07,17,03,15,13.80
2016,07,17,03,16,13.80
2016,07,17,03,17,13.80
2016,07,17,03,18,13.80
2016,07,17,03,19,13.80
2016,07,17,03,20,13.80
2016,07,17,03,21,13.80
2016,07,17,03,22,13.80
2016,07,17,03,23,13.80
2016,07,17,03,24,13.80
2016,07,17,03,25,13.70
2016,07,17,03,26,13.70
2016,07,17,03,27,13.70
2016,07,17,03,28,13.70
2016,07,17,03,29,13.70
2016,07,17,03,30,13.70
2016,07,17,03,31,13.70
2016,07,17,03,32,13.70
2016,07,17,03,33,13.70
2016,07,17,03,34,13.70
2016,07,17,03,35,13.70
2016,07,17,03,36,13.70
2016,07,17,03,37,13.70
2016,07,17,03,38,13.70
2016,07,17,03,39,13.70
2016,07,17,03,40,13.70
2016,07,17,03,41,13.70
2016,07,17,03,42,13.70
2016,07,17,03,43,13.70
2016,07,17,03,44,13.70
2016,07,17,03,45,13.70
2016,07,17,03,46,13.70
2016,07,17,03,47,13.70
2016,07,17,03,48,13.70
2016,07,17,03,49,13.70
2016,07,17,03,50,13.70
2016,07,17,03,51,13.70
2016,07,17,03,52,13.70
2016,07,17,03,53,13.70
2016,07,17,03,54,13.70
2016,07,17,03,55,13.70
2016,07,17,03,56,13.70
2016,07,17,03,57,13.70
2016,07,17,03,58,13.70
2016,07,17,03,59,13.70
2016,07,17,04,00,13.70
2016,07,17,04,01,13.70
2016,07,17,04,02,13.70
2016,07,17,04,03,13.70
2016,07,17,04,04,13.70
2016,07,17,04,05,13.70
2016,07,17,04,06,13.70
2016,07,17,04,07,13.70
2016,07,17,04,08,13.70
2016,07,17,04,09,13.70
2016,07,17,04,10,13.70
2016,07,17,04,11,13.70
2016,07,17,04,12,13.70
2016,07,17,04,13,13.70
2016,07,17,04,14,13.70
2016,07,17,04,15,13.70
2016,07,17,04,16,13.70
2016,07,17,04,17,13.70
2016,07,17,04,18,13.70
2016,07,17,04,19,13.70
2016,07,17,04,20,13.70
2016,07,17,04,21,13.70
2016,07,17,04,22,13.70
2016,07,17,04,23,13.70
2016,07,17,04,24,13.70
2016,07,17,04,25,13.70
2016,07,17,04,26,13.70
2016,07,17,04,27,13.70
2016,07,17,04,28,13.70
2016,07,17,04,29,13.70
2016,07,17,04,30,13.70
2016,07,17,04,31,13.70
2016,07,17,04,32,13.70
2016,07,17,04,33,13.70
2016,07,17,04,34,13.70
2016,07,17,04,35,13.70
2016,07,17,04,36,13.70
2016,07,17,04,37,13.70
2016,07,17,04,38,13.70
2016,07,17,04,39,13.70
2016,07,17,04,40,13.70
2016,07,17,04,41,13.70
2016,07,17,04,42,13.70
2016,07,17,04,43,13.70
2016,07,17,04,44,13.70
2016,07,17,04,45,13.70
2016,07,17,04,46,13.70
2016,07,17,04,47,13.70
2016,07,17,04,48,13.70
2016,07,17,04,49,13.70
2016,07,17,04,50,13.70
2016,07,17,04,51,13.70
2016,07,17,04,52,13.70
2016,07,17,04,53,13.70
2016,07,17,04,54,13.70
2016,07,17,04,55,13.70
2016,07,17,04,56,13.70
2016,07,17,04,57,13.70
2016,07,17,04,58,13.70
2016,07,17,04,59,13.70
2016,07,17,05,00,13.70
2016,07,17,05,01,13.70
2016,07,17,05,02,13.70
2016,07,17,05,03,13.70
2016,07,17,05,04,13.70
2016,07,17,05,05,13.70
2016,07,17,05,06,13.70
2016,07,17,05,07,13.70
2016,07,17,05,08,13.70
2016,07,17,05,09,13.70
2016,07,17,05,10,13.70
2016,07,17,05,11,13.70
2016,07,17,05,12,13.60
2016,07,17,05,13,13.60
2016,07,17,05,14,13.60
2016,07,17,05,15,13.60
2016,07,17,05,16,13.60
2016,07,17,05,17,13.60
2016,07,17,05,18,13.60
2016,07,17,05,19,13.60
2016,07,17,05,20,13.60
2016,07,17,05,21,13.60
2016,07,17,05,22,13.60
2016,07,17,05,23,13.60
2016,07,17,05,24,13.60
2016,07,17,05,25,13.60
2016,07,17,05,26,13.60
2016,07,17,05,27,13.60
2016,07,17,05,28,13.60
2016,07,17,05,29,13.60
2016,07,17,05,30,13.60
2016,07,17,05,31,13.60
2016,07,17,05,32,13.60
2016,07,17,05,33,13.70
2016,07,17,05,34,13.70
2016,07,17,05,35,13.70
2016,07,17,05,36,13.70
2016,07,17,05,37,13.70
2016,07,17,05,38,13.70
2016,07,17,05,39,13.70
2016,07,17,05,40,13.70
2016,07,17,05,41,13.70
2016,07,17,05,42,13.70
2016,07,17,05,43,13.70
2016,07,17,05,44,13.70
2016,07,17,05,45,13.70
2016,07,17,05,46,13.70
2016,07,17,05,47,13.70
2016,07,17,05,48,13.70
2016,07,17,05,49,13.70
2016,07,17,05,50,13.70
2016,07,17,05,51,13.70
2016,07,17,05,52,13.70
2016,07,17,05,53,13.70
2016,07,17,05,54,13.70
2016,07,17,05,55,13.70
2016,07,17,05,56,13.70
2016,07,17,05,57,13.70
2016,07,17,05,58,13.70
2016,07,17,05,59,13.70
2016,07,17,06,00,13.70
2016,07,17,06,01,13.70
2016,07,17,06,02,13.70
2016,07,17,06,03,13.70
2016,07,17,06,04,13.70
2016,07,17,06,05,13.70
2016,07,17,06,06,13.70
2016,07,17,06,07,13.70
2016,07,17,06,08,13.70
2016,07,17,06,09,13.70
2016,07,17,06,10,13.80
2016,07,17,06,11,13.80
2016,07,17,06,12,13.80
2016,07,17,06,13,13.80
2016,07,17,06,14,13.80
2016,07,17,06,15,13.80
2016,07,17,06,16,13.80
2016,07,17,06,17,13.80
2016,07,17,06,18,13.80
2016,07,17,06,19,13.80
2016,07,17,06,20,13.90
2016,07,17,06,21,13.90
2016,07,17,06,22,13.90
2016,07,17,06,23,13.90
2016,07,17,06,24,13.90
2016,07,17,06,25,13.90
2016,07,17,06,26,13.90
2016,07,17,06,27,13.90
2016,07,17,06,28,14.00
2016,07,17,06,29,14.00
2016,07,17,06,30,14.00
2016,07,17,06,31,14.00
2016,07,17,06,32,14.10
2016,07,17,06,33,14.10
2016,07,17,06,34,14.10
2016,07,17,06,35,14.10
2016,07,17,06,36,14.10
2016,07,17,06,37,14.10
2016,07,17,06,38,14.20
2016,07,17,06,39,14.20
2016,07,17,06,40,14.20
2016,07,17,06,41,14.20
2016,07,17,06,42,14.20
2016,07,17,06,43,14.20
2016,07,17,06,44,14.20
2016,07,17,06,45,14.20
2016,07,17,06,46,14.20
2016,07,17,06,47,14.20
2016,07,17,06,48,14.20
2016,07,17,06,49,14.20
2016,07,17,06,50,14.30
2016,07,17,06,51,14.30
2016,07,17,06,52,14.30
2016,07,17,06,53,14.30
2016,07,17,06,54,14.30
2016,07,17,06,55,14.30
2016,07,17,06,56,14.40
2016,07,17,06,57,14.40
2016,07,17,06,58,14.40
2016,07,17,06,59,14.40
2016,07,17,07,00,14.40
2016,07,17,07,01,14.40
2016,07,17,07,02,14.40
2016,07,17,07,03,14.40
2016,07,17,07,04,14.40
2016,07,17,07,05,14.50
2016,07,17,07,06,14.50
2016,07,17,07,07,14.50
2016,07,17,07,08,14.60
2016,07,17,07,09,14.60
2016,07,17,07,10,14.60
2016,07,17,07,11,14.70
2016,07,17,07,12,14.70
2016,07,17,07,13,14.70
2016,07,17,07,14,14.70
2016,07,17,07,15,14.70
2016,07,17,07,16,14.70
2016,07,17,07,17,14.70
2016,07,17,07,18,14.80
2016,07,17,07,19,14.80
2016,07,17,07,20,14.80
2016,07,17,07,21,14.80
2016,07,17,07,22,14.80
2016,07,17,07,23,14.80
2016,07,17,07,24,14.80
2016,07,17,07,25,14.80
2016,07,17,07,26,14.80
2016,07,17,07,27,14.80
2016,07,17,07,28,14.80
2016,07,17,07,29,14.80
2016,07,17,07,30,14.80
2016,07,17,07,31,14.80
2016,07,17,07,32,14.80
2016,07,17,07,33,14.80
2016,07,17,07,34,14.80
2016,07,17,07,35,14.80
2016,07,17,07,36,14.80
2016,07,17,07,37,14.90
2016,07,17,07,38,14.90
2016,07,17,07,39,14.90
2016,07,17,07,40,14.90
2016,07,17,07,41,14.90
2016,07,17,07,42,14.90
2016,07,17,07,43,14.90
2016,07,17,07,44,14.90
2016,07,17,07,45,14.90
2016,07,17,07,46,14.90
2016,07,17,07,47,14.90
2016,07,17,07,48,14.90
2016,07,17,07,49,14.90
2016,07,17,07,50,14.90
2016,07,17,07,51,15.00
2016,07,17,07,52,15.00
2016,07,17,07,53,15.00
2016,07,17,07,54,15.00
2016,07,17,07,55,15.00
2016,07,17,07,56,15.00
2016,07,17,07,57,15.00
2016,07,17,07,58,15.00
2016,07,17,07,59,15.00
2016,07,17,08,00,15.00
2016,07,17,08,01,15.00
2016,07,17,08,02,15.00
2016,07,17,08,03,15.00
2016,07,17,08,04,15.00
2016,07,17,08,05,15.00
2016,07,17,08,06,15.00
2016,07,17,08,07,15.00
2016,07,17,08,08,15.00
2016,07,17,08,09,15.10
2016,07,17,08,10,15.10
2016,07,17,08,11,15.10
2016,07,17,08,12,15.10
2016,07,17,08,13,15.20
2016,07,17,08,14,15.20
2016,07,17,08,15,15.20
2016,07,17,08,16,15.30
2016,07,17,08,17,15.30
2016,07,17,08,18,15.40
2016,07,17,08,19,15.40
2016,07,17,08,20,15.40
2016,07,17,08,21,15.40
2016,07,17,08,22,15.40
2016,07,17,08,23,15.50
2016,07,17,08,24,15.50
2016,07,17,08,25,15.60
2016,07,17,08,26,15.60
2016,07,17,08,27,15.70
2016,07,17,08,28,15.80
2016,07,17,08,29,15.80
2016,07,17,08,30,15.90
2016,07,17,08,31,15.90
2016,07,17,08,32,15.90
2016,07,17,08,33,16.00
2016,07,17,08,34,16.00
2016,07,17,08,35,16.00
2016,07,17,08,36,16.10
2016,07,17,08,37,16.10
2016,07,17,08,38,16.10
2016,07,17,08,39,16.10
2016,07,17,08,40,16.20
2016,07,17,08,41,16.20
2016,07,17,08,42,16.20
2016,07,17,08,43,16.30
2016,07,17,08,44,16.30
2016,07,17,08,45,16.40
2016,07,17,08,46,16.40
2016,07,17,08,47,16.50
2016,07,17,08,48,16.60
2016,07,17,08,49,16.60
2016,07,17,08,50,16.70
2016,07,17,08,51,16.70
2016,07,17,08,52,16.80
2016,07,17,08,53,16.80
2016,07,17,08,54,16.90
2016,07,17,08,55,16.90
2016,07,17,08,56,16.90
2016,07,17,08,57,16.90
2016,07,17,08,58,17.00
2016,07,17,08,59,17.00
2016,07,17,09,00,17.00
2016,07,17,09,01,17.00
2016,07,17,09,02,17.00
2016,07,17,09,03,17.10
2016,07,17,09,04,17.10
2016,07,17,09,05,17.10
2016,07,17,09,06,17.10
2016,07,17,09,07,17.10
2016,07,17,09,08,17.10
2016,07,17,09,09,17.10
2016,07,17,09,10,17.10
2016,07,17,09,11,17.20
2016,07,17,09,12,17.20
2016,07,17,09,13,17.20
2016,07,17,09,14,17.20
2016,07,17,09,15,17.20
2016,07,17,09,16,17.10
2016,07,17,09,17,17.10
2016,07,17,09,18,17.00
2016,07,17,09,19,17.00
2016,07,17,09,20,16.90
2016,07,17,09,21,16.80
2016,07,17,09,22,16.80
2016,07,17,09,23,16.80
2016,07,17,09,24,16.70
2016,07,17,09,25,16.70
2016,07,17,09,26,16.60
2016,07,17,09,27,16.60
2016,07,17,09,28,16.60
2016,07,17,09,29,16.60
2016,07,17,09,30,16.60
2016,07,17,09,31,16.60
2016,07,17,09,32,16.60
2016,07,17,09,33,16.50
2016,07,17,09,34,16.40
2016,07,17,09,35,16.40
2016,07,17,09,36,16.30
2016,07,17,09,37,16.30
2016,07,17,09,38,16.30
2016,07,17,09,39,16.20
2016,07,17,09,40,16.20
2016,07,17,09,41,16.10
2016,07,17,09,42,16.10
2016,07,17,09,43,16.10
2016,07,17,09,44,16.10
2016,07,17,09,45,16.10
2016,07,17,09,46,16.20
2016,07,17,09,47,16.20
2016,07,17,09,48,16.30
2016,07,17,09,49,16.30
2016,07,17,09,50,16.40
2016,07,17,09,51,16.50
2016,07,17,09,52,16.60
2016,07,17,09,53,16.60
2016,07,17,09,54,16.60
2016,07,17,09,55,16.60
2016,07,17,09,56,16.70
2016,07,17,09,57,16.70
2016,07,17,09,58,16.70
2016,07,17,09,59,16.80
2016,07,17,10,00,16.80
2016,07,17,10,01,16.80
2016,07,17,10,02,16.80
2016,07,17,10,03,16.90
2016,07,17,10,04,16.90
2016,07,17,10,05,17.00
2016,07,17,10,06,17.10
2016,07,17,10,07,17.20
2016,07,17,10,08,17.20
2016,07,17,10,09,17.20
2016,07,17,10,10,17.30
2016,07,17,10,11,17.30
2016,07,17,10,12,17.30
2016,07,17,10,13,17.30
2016,07,17,10,14,17.30
2016,07,17,10,15,17.30
2016,07,17,10,16,17.30
2016,07,17,10,17,17.30
2016,07,17,10,18,17.30
2016,07,17,10,19,17.20
2016,07,17,10,20,17.30
2016,07,17,10,21,17.30
2016,07,17,10,22,17.30
2016,07,17,10,23,17.30
2016,07,17,10,24,17.30
2016,07,17,10,25,17.30
2016,07,17,10,26,17.30
2016,07,17,10,27,17.30
2016,07,17,10,28,17.20
2016,07,17,10,29,17.20
2016,07,17,10,30,17.20
2016,07,17,10,31,17.10
2016,07,17,10,32,17.10
2016,07,17,10,33,17.10
2016,07,17,10,34,17.00
2016,07,17,10,35,17.00
2016,07,17,10,36,16.90
2016,07,17,10,37,16.80
2016,07,17,10,38,16.80
2016,07,17,10,39,16.80
2016,07,17,10,40,16.70
2016,07,17,10,41,16.80
2016,07,17,10,42,16.80
2016,07,17,10,43,16.80
2016,07,17,10,44,16.80
2016,07,17,10,45,16.80
2016,07,17,10,46,16.90
2016,07,17,10,47,16.90
2016,07,17,10,48,17.00
2016,07,17,10,49,17.00
2016,07,17,10,50,17.00
2016,07,17,10,51,17.10
2016,07,17,10,52,17.10
2016,07,17,10,53,17.10
2016,07,17,10,54,17.10
2016,07,17,10,55,17.10
2016,07,17,10,56,17.20
2016,07,17,10,57,17.20
2016,07,17,10,58,17.30
2016,07,17,10,59,17.40
2016,07,17,11,00,17.40
2016,07,17,11,01,17.40
2016,07,17,11,02,17.50
2016,07,17,11,03,17.60
2016,07,17,11,04,17.60
2016,07,17,11,05,17.60
2016,07,17,11,06,17.70
2016,07,17,11,07,17.70
2016,07,17,11,08,17.70
2016,07,17,11,09,17.70
2016,07,17,11,10,17.70
2016,07,17,11,11,17.80
2016,07,17,11,12,17.80
2016,07,17,11,13,17.90
2016,07,17,11,14,17.90
2016,07,17,11,15,17.90
2016,07,17,11,16,18.00
2016,07,17,11,17,18.10
2016,07,17,11,18,18.20
2016,07,17,11,19,18.30
2016,07,17,11,20,18.50
2016,07,17,11,21,18.60
2016,07,17,11,22,18.70
2016,07,17,11,23,18.70
2016,07,17,11,24,18.80
2016,07,17,11,25,18.90
2016,07,17,11,26,18.90
2016,07,17,11,27,18.90
2016,07,17,11,28,18.90
2016,07,17,11,29,19.00
2016,07,17,11,30,19.10
2016,07,17,11,31,19.10
2016,07,17,11,32,19.10
2016,07,17,11,33,19.00
2016,07,17,11,34,18.90
2016,07,17,11,35,18.80
2016,07,17,11,36,18.70
2016,07,17,11,37,18.70
2016,07,17,11,38,18.60
2016,07,17,11,39,18.50
2016,07,17,11,40,18.40
2016,07,17,11,41,18.40
2016,07,17,11,42,18.30
2016,07,17,11,43,18.30
2016,07,17,11,44,18.30
2016,07,17,11,45,18.30
2016,07,17,11,46,18.30
2016,07,17,11,47,18.30
2016,07,17,11,48,18.30
2016,07,17,11,49,18.30
2016,07,17,11,50,18.20
2016,07,17,11,51,18.20
2016,07,17,11,52,18.20
2016,07,17,11,53,18.20
2016,07,17,11,54,18.20
2016,07,17,11,55,18.20
2016,07,17,11,56,18.20
2016,07,17,11,57,18.20
2016,07,17,11,58,18.20
2016,07,17,11,59,18.20
2016,07,17,12,00,18.20
2016,07,17,12,01,18.20
2016,07,17,12,02,18.20
2016,07,17,12,03,18.20
2016,07,17,12,04,18.20
2016,07,17,12,05,18.20
2016,07,17,12,06,18.30
2016,07,17,12,07,18.40
2016,07,17,12,08,18.40
2016,07,17,12,09,18.50
2016,07,17,12,10,18.60
2016,07,17,12,11,18.60
2016,07,17,12,12,18.70
2016,07,17,12,13,18.70
2016,07,17,12,14,18.70
2016,07,17,12,15,18.60
2016,07,17,12,16,18.50
2016,07,17,12,17,18.50
2016,07,17,12,18,18.40
2016,07,17,12,19,18.30
2016,07,17,12,20,18.20
2016,07,17,12,21,18.10
2016,07,17,12,22,18.10
2016,07,17,12,23,18.10
2016,07,17,12,24,18.20
2016,07,17,12,25,18.20
2016,07,17,12,26,18.20
2016,07,17,12,27,18.20
2016,07,17,12,28,18.20
2016,07,17,12,29,18.20
2016,07,17,12,30,18.20
2016,07,17,12,31,18.20
2016,07,17,12,32,18.30
2016,07,17,12,33,18.30
2016,07,17,12,34,18.40
2016,07,17,12,35,18.40
2016,07,17,12,36,18.50
2016,07,17,12,37,18.50
2016,07,17,12,38,18.50
2016,07,17,12,39,18.50
2016,07,17,12,40,18.50
2016,07,17,12,41,18.50
2016,07,17,12,42,18.50
2016,07,17,12,43,18.50
2016,07,17,12,44,18.60
2016,07,17,12,45,18.70
2016,07,17,12,46,18.80
2016,07,17,12,47,18.90
2016,07,17,12,48,18.90
2016,07,17,12,49,19.00
2016,07,17,12,50,19.00
2016,07,17,12,51,19.00
2016,07,17,12,52,19.10
2016,07,17,12,53,19.10
2016,07,17,12,54,19.20
2016,07,17,12,55,19.30
2016,07,17,12,56,19.40
2016,07,17,12,57,19.60
2016,07,17,12,58,19.80
2016,07,17,12,59,19.90
2016,07,17,13,00,20.00
2016,07,17,13,01,20.00
2016,07,17,13,02,20.00
2016,07,17,13,03,20.10
2016,07,17,13,04,20.10
2016,07,17,13,05,20.10
2016,07,17,13,06,20.10
2016,07,17,13,07,20.10
2016,07,17,13,08,20.10
2016,07,17,13,09,20.10
2016,07,17,13,10,20.10
2016,07,17,13,11,20.10
2016,07,17,13,12,20.20
2016,07,17,13,13,20.20
2016,07,17,13,14,20.30
2016,07,17,13,15,20.40
2016,07,17,13,16,20.40
2016,07,17,13,17,20.40
2016,07,17,13,18,20.40
2016,07,17,13,19,20.50
2016,07,17,13,20,20.50
2016,07,17,13,21,20.30
2016,07,17,13,22,20.20
2016,07,17,13,23,20.10
2016,07,17,13,24,20.10
2016,07,17,13,25,20.00
2016,07,17,13,26,20.00
2016,07,17,13,27,19.90
2016,07,17,13,28,19.80
2016,07,17,13,29,19.80
2016,07,17,13,30,19.80
2016,07,17,13,31,19.80
2016,07,17,13,32,19.80
2016,07,17,13,33,19.70
2016,07,17,13,34,19.70
2016,07,17,13,35,19.70
2016,07,17,13,36,19.70
2016,07,17,13,37,19.70
2016,07,17,13,38,19.60
2016,07,17,13,39,19.50
2016,07,17,13,40,19.40
2016,07,17,13,41,19.40
2016,07,17,13,42,19.30
2016,07,17,13,43,19.30
2016,07,17,13,44,19.40
2016,07,17,13,45,19.40
2016,07,17,13,46,19.50
2016,07,17,13,47,19.50
2016,07,17,13,48,19.60
2016,07,17,13,49,19.60
2016,07,17,13,50,19.70
2016,07,17,13,51,19.80
2016,07,17,13,52,19.80
2016,07,17,13,53,19.90
2016,07,17,13,54,19.80
2016,07,17,13,55,19.70
2016,07,17,13,56,19.60
2016,07,17,13,57,19.60
2016,07,17,13,58,19.50
2016,07,17,13,59,19.50
2016,07,17,14,00,19.60
2016,07,17,14,01,19.60
2016,07,17,14,02,19.60
2016,07,17,14,03,19.60
2016,07,17,14,04,19.70
2016,07,17,14,05,19.70
2016,07,17,14,06,19.60
2016,07,17,14,07,19.60
2016,07,17,14,08,19.60
2016,07,17,14,09,19.60
2016,07,17,14,10,19.60
2016,07,17,14,11,19.70
2016,07,17,14,12,19.70
2016,07,17,14,13,19.70
2016,07,17,14,14,19.70
2016,07,17,14,15,19.70
2016,07,17,14,16,19.70
2016,07,17,14,17,19.60
2016,07,17,14,18,19.50
2016,07,17,14,19,19.40
2016,07,17,14,20,19.30
2016,07,17,14,21,19.20
2016,07,17,14,22,19.00
2016,07,17,14,23,19.00
2016,07,17,14,24,19.00
2016,07,17,14,25,18.90
2016,07,17,14,26,19.00
2016,07,17,14,27,19.00
2016,07,17,14,28,18.90
2016,07,17,14,29,19.00
2016,07,17,14,30,19.10
2016,07,17,14,31,19.10
2016,07,17,14,32,19.10
2016,07,17,14,33,19.20
2016,07,17,14,34,19.10
2016,07,17,14,35,19.20
2016,07,17,14,36,19.10
2016,07,17,14,37,19.00
2016,07,17,14,38,18.90
2016,07,17,14,39,18.80
2016,07,17,14,40,18.70
2016,07,17,14,41,18.60
2016,07,17,14,42,18.50
2016,07,17,14,43,18.40
2016,07,17,14,44,18.40
2016,07,17,14,45,18.40
2016,07,17,14,46,18.40
2016,07,17,14,47,18.40
2016,07,17,14,48,18.50
2016,07,17,14,49,18.50
2016,07,17,14,50,18.60
2016,07,17,14,51,18.60
2016,07,17,14,52,18.60
2016,07,17,14,53,18.70
2016,07,17,14,54,18.70
2016,07,17,14,55,18.80
2016,07,17,14,56,18.80
2016,07,17,14,57,18.90
2016,07,17,14,58,18.90
2016,07,17,14,59,19.00
2016,07,17,15,00,19.10
2016,07,17,15,01,19.20
2016,07,17,15,02,19.20
2016,07,17,15,03,19.30
2016,07,17,15,04,19.30
2016,07,17,15,05,19.30
2016,07,17,15,06,19.30
2016,07,17,15,07,19.30
2016,07,17,15,08,19.40
2016,07,17,15,09,19.40
2016,07,17,15,10,19.40
2016,07,17,15,11,19.40
2016,07,17,15,12,19.30
2016,07,17,15,13,19.30
2016,07,17,15,14,19.20
2016,07,17,15,15,19.10
2016,07,17,15,16,19.10
2016,07,17,15,17,19.00
2016,07,17,15,18,18.90
2016,07,17,15,19,18.80
2016,07,17,15,20,18.80
2016,07,17,15,21,18.80
2016,07,17,15,22,18.70
2016,07,17,15,23,18.70
2016,07,17,15,24,18.60
2016,07,17,15,25,18.50
2016,07,17,15,26,18.30
2016,07,17,15,27,18.30
2016,07,17,15,28,18.10
2016,07,17,15,29,18.10
2016,07,17,15,30,18.00
2016,07,17,15,31,17.90
2016,07,17,15,32,17.90
2016,07,17,15,33,17.90
2016,07,17,15,34,17.90
2016,07,17,15,35,17.90
2016,07,17,15,36,17.90
2016,07,17,15,37,17.80
2016,07,17,15,38,17.80
2016,07,17,15,39,17.80
2016,07,17,15,40,17.80
2016,07,17,15,41,17.80
2016,07,17,15,42,17.90
2016,07,17,15,43,18.00
2016,07,17,15,44,18.10
2016,07,17,15,45,18.20
2016,07,17,15,46,18.20
2016,07,17,15,47,18.20
2016,07,17,15,48,18.20
2016,07,17,15,49,18.20
2016,07,17,15,50,18.20
2016,07,17,15,51,18.30
2016,07,17,15,52,18.30
2016,07,17,15,53,18.40
2016,07,17,15,54,18.40
2016,07,17,15,55,18.50
2016,07,17,15,56,18.60
2016,07,17,15,57,18.70
2016,07,17,15,58,18.80
2016,07,17,15,59,18.80
2016,07,17,16,00,18.80
2016,07,17,16,01,18.70
2016,07,17,16,02,18.70
2016,07,17,16,03,18.80
2016,07,17,16,04,18.80
2016,07,17,16,05,18.90
2016,07,17,16,06,19.00
2016,07,17,16,07,19.00
2016,07,17,16,08,19.00
2016,07,17,16,09,19.00
2016,07,17,16,10,18.90
2016,07,17,16,11,18.90
2016,07,17,16,12,18.80
2016,07,17,16,13,18.80
2016,07,17,16,14,18.80
2016,07,17,16,15,18.80
2016,07,17,16,16,18.70
2016,07,17,16,17,18.50
2016,07,17,16,18,18.40
2016,07,17,16,19,18.30
2016,07,17,16,20,18.10
2016,07,17,16,21,18.00
2016,07,17,16,22,17.90
2016,07,17,16,23,17.90
2016,07,17,16,24,17.80
2016,07,17,16,25,17.80
2016,07,17,16,26,17.80
2016,07,17,16,27,17.80
2016,07,17,16,28,17.80
2016,07,17,16,29,17.90
2016,07,17,16,30,17.90
2016,07,17,16,31,18.00
2016,07,17,16,32,18.10
2016,07,17,16,33,18.10
2016,07,17,16,34,18.20
2016,07,17,16,35,18.20
2016,07,17,16,36,18.30
2016,07,17,16,37,18.30
2016,07,17,16,38,18.30
2016,07,17,16,39,18.30
2016,07,17,16,40,18.40
2016,07,17,16,41,18.40
2016,07,17,16,42,18.40
2016,07,17,16,43,18.40
2016,07,17,16,44,18.40
2016,07,17,16,45,18.30
2016,07,17,16,46,18.30
2016,07,17,16,47,18.30
2016,07,17,16,48,18.30
2016,07,17,16,49,18.20
2016,07,17,16,50,18.20
2016,07,17,16,51,18.20
2016,07,17,16,52,18.20
2016,07,17,16,53,18.20
2016,07,17,16,54,18.20
2016,07,17,16,55,18.20
2016,07,17,16,56,18.30
2016,07,17,16,57,18.30
2016,07,17,16,58,18.30
2016,07,17,16,59,18.30
2016,07,17,17,00,18.30
2016,07,17,17,01,18.30
2016,07,17,17,02,18.30
2016,07,17,17,03,18.20
2016,07,17,17,04,18.10
2016,07,17,17,05,18.10
2016,07,17,17,06,18.00
2016,07,17,17,07,17.90
2016,07,17,17,08,17.90
2016,07,17,17,09,17.80
2016,07,17,17,10,17.80
2016,07,17,17,11,17.80
2016,07,17,17,12,17.90
2016,07,17,17,13,17.80
2016,07,17,17,14,17.80
2016,07,17,17,15,17.80
2016,07,17,17,16,17.80
2016,07,17,17,17,17.80
2016,07,17,17,18,17.80
2016,07,17,17,19,17.80
2016,07,17,17,20,17.90
2016,07,17,17,21,17.90
2016,07,17,17,22,17.90
2016,07,17,17,23,17.90